[[{"header":{"parameterUnit":"m.s-1","parameterCategory":1,"la1":30.2991,"la2":30.254,"lo1":-89.0895,"lo2":-89.0444,"dy":0.0017,"dx":0.0017,"nx":28,"ny":28,"refTime":"2023-07-30T09:00:00:Z","depth":0,"parameterNumber":2,"parameterNumberName":"U-component_of_WINDS"},"data":[0,0,0,0,0,0,0,0,0,0,0,0,0,0,0,0,0,0,0,0,0,0,0,0,0,0,0,0,0,0,0,0,0,0,0,0,0,0,0,0,0,0,0,0,0,0,0,0,0,0,0,0,0,0,0,0,0,0,0.8915,0.8917,0,0.9127,0.9129,0.9131,0.9177,0.9175,0.9173,0.9172,0.9395,0.9402,0.9409,0,0,0,0,0,0,0,0,0,0,0,0,0,0.8556,0.8563,0.8915,0.8918,0.892,0.9126,0.9129,0.9132,0.9177,0.9175,0.9173,0.9171,0.9392,0.9401,0.941,0,0,0,0,0,0,0,0,0,0,0,0,0,0.8734,0.8565,0.8914,0.8967,0.8974,0.9126,0.9129,0.9133,0.9177,0.9175,0.9172,0.917,0.939,0.94,0.9411,0.9527,0,0,0.9445,0.945,0,0,0,0,0,0,0,0,0.8724,0.8748,0.8957,0.8964,0.8972,0.9123,0.9084,0.9265,0.9178,0.91,0.9172,0.9169,0.9307,0.9324,0.9369,0.9538,0.9547,0.9446,0.9453,0.9458,0.9461,0,0,0,0,0,0,0,0.8712,0.8739,0.8999,0.896,0.8969,0.8982,0.9005,0.9119,0.9214,0.9107,0.9111,0.9135,0.931,0.9359,0.9375,0.955,0.9446,0.9456,0.9463,0.9467,0.9827,0.983,0,0,0,0,0,0,0.8689,0.8728,0.8992,0.9005,0.8839,0.8991,0.9016,0.9077,0.9213,0.9232,0.9136,0.9136,0.9341,0.9362,0.9383,0.953,0.9458,0.9468,0.9474,0.9824,0.9828,0.9831,0,0,0,0,0,0,0.8681,0.8712,0.8984,0.8868,0.8903,0.8999,0.9067,0.9082,0.9131,0.9235,0.9253,0.9168,0.934,0.9367,0.9491,0.9539,0.9473,0.9483,0.9821,0.9825,0.9829,0.9824,0,0,0,0,0,0,0.8671,0.8709,0.8753,0.8868,0.8909,0.9086,0.907,0.9088,0.9149,0.915,0.927,0.9287,0.934,0.9474,0.9502,0.9553,0.9492,0.9817,0.9823,0.9828,0.982,0.9827,0.9833,0,0,0,0,0,0.8658,0.8744,0.8755,0.8787,0.8965,0.9089,0.9113,0.917,0.9152,0.9198,0.9266,0.9284,0.9528,0.9487,0.9518,0.9573,0.9814,0.9821,0.9828,0.9817,0.9826,0.9833,0,0,0,0,0,0,0.8634,0.876,0.8774,0.8899,0.8982,0.9096,0.9156,0.9177,0.9269,0.9267,0.9335,0.9362,0.9482,0.9539,0.9491,0.9693,0.9671,0.9684,0.9652,0.9661,0.9668,0.9653,0.9501,0,0,0,0,0,0.8642,0.873,0.8836,0.8937,0.8978,0.9059,0.9115,0.9151,0.9242,0.9278,0.9355,0.9444,0.9541,0.9604,0.9699,0.9827,0.9856,0.9881,0.9887,0.9892,0.9904,0.998,0.9993,0.9852,0.9852,0.9852,0,0,0.8663,0.8742,0.8794,0.8934,0.9003,0.9095,0.9089,0.9186,0.9256,0.9294,0.9416,0.9475,0.9579,0.9706,0.9766,0.9758,0.9949,0.9901,0.9904,0.9913,0.9988,1.0001,1.0013,0.9857,0.9856,0.9855,0,0,0.8747,0.8814,0.8907,0.8975,0.9079,0.9133,0.9155,0.9265,0.9306,0.9428,0.9459,0.9544,0.9709,0.9782,0.9841,0.9952,0.9974,0.9981,1.0018,1.009,1.0101,1.0112,1.0155,1.0169,0.9992,0.9992,0.9992,0,0.876,0.8897,0.8952,0.9048,0.911,0.9145,0.9241,0.9306,0.9436,0.948,0.9467,0.9676,0.9748,0.9895,0.9922,0.9967,0.9997,0.997,1.0095,1.0106,1.0116,1.0158,1.0174,0.9992,0.9992,0.9992,0.9992,0,0.8909,0.9004,0.9066,0.919,0.9258,0.9353,0.9425,0.9488,0.9518,0.9573,0.9699,0.9786,0.9901,0.9937,0.9968,1.0089,1.0081,1.008,1.006,1.0129,1.017,1.0186,0.9993,0.9993,0.9993,0.9993,0,0,0.8988,0.9138,0.9161,0.9218,0.9335,0.9411,0.9507,0.9617,0.9672,0.976,0.9846,0.9984,0.9985,1.0051,1.009,1.0154,1.024,1.0147,1.015,1.0164,1.0383,1.0385,1.0403,1.0253,1.0256,1.0259,1.0376,0,0.9089,0.9262,0.9314,0.9461,0.9551,0.9586,0.9671,0.9753,0.9807,0.9893,0.9953,1.0052,1.0043,1.0084,1.0148,1.0216,1.0286,1.0208,1.0338,1.0342,1.0314,1.0424,1.0427,1.0533,1.0392,1.0394,1.0396,0,0.9232,0.9321,0.9475,0.9582,0.9621,0.9697,0.9802,0.9882,0.9977,1.0012,1.0086,1.012,1.0226,1.0195,1.0344,1.029,1.0346,1.0387,1.0393,1.0411,1.0376,1.0448,1.0567,1.0585,1.0421,1.0419,1.0417,0,0.9278,0.9436,0.955,0.9597,0.9723,0.9776,0.9831,0.9922,0.9985,1.0078,1.012,1.0224,1.0282,1.0363,1.0425,1.0396,1.0569,1.0544,1.0605,1.0604,1.0643,1.0641,1.0777,1.0672,1.0672,1.0671,1.0671,0,0.9388,0.9483,0.9573,0.9643,0.9751,0.9809,0.9915,0.9972,1.0053,1.0138,1.0173,1.0252,1.0327,1.0416,1.0465,1.0583,1.0608,1.0642,1.0655,1.0642,1.0638,1.0682,1.0678,1.0676,1.0675,1.0674,1.0673,0,0.946,0.9523,0.965,0.9758,0.9787,0.9862,0.9956,1.0027,1.008,1.0187,1.0215,1.0302,1.0409,1.0477,1.0614,1.0647,1.0778,1.0786,1.0745,1.0752,1.0811,1.0806,1.0984,1.1013,1.0884,1.0885,1.0886,0,0.9529,0.9602,0.9717,0.9774,0.9829,0.9922,0.9986,1.0046,1.0112,1.0225,1.0283,1.0392,1.0483,1.0653,1.073,1.0835,1.0849,1.0904,1.0866,1.085,1.0855,1.0852,1.0861,1.0912,1.0913,1.0914,1.0914,0,0.9645,0.9672,0.9762,0.9863,0.9937,1.002,1.0103,1.0149,1.0224,1.0296,1.0405,1.0475,1.0614,1.0723,1.0835,1.0895,1.0919,1.0925,1.0946,1.0935,1.0911,1.0929,1.0767,1.0922,1.0921,1.0921,1.092,1.092,0.9721,0.9788,0.9879,0.9979,1.0046,1.0123,1.0195,1.0258,1.0348,1.0465,1.0495,1.061,1.0704,1.0857,1.0918,1.1011,1.1004,1.1033,1.1041,1.1049,1.1052,1.0891,1.1031,1.1031,1.1031,1.1031,1.1031,0,0.9843,0.9902,0.9992,1.0106,1.0185,1.0195,1.0288,1.0354,1.0454,1.0538,1.0625,1.0752,1.0857,1.0941,1.1051,1.1109,1.1123,1.1136,1.1135,1.1149,1.1049,1.1022,1.1123,1.1123,1.1123,1.1123,1.1123,1.1123,0.9916,1.0031,1.0069,1.022,1.0279,1.039,1.0443,1.0515,1.0582,1.0721,1.0808,1.086,1.0946,1.1061,1.116,1.1182,1.1223,1.1235,1.126,1.1166,1.1156,1.1146,1.1122,1.1242,1.1242,1.1353,1.1354,1.1355]},{"header":{"parameterUnit":"m.s-1","parameterCategory":1,"la1":30.2991,"la2":30.254,"lo1":-89.0895,"lo2":-89.0444,"dy":0.0017,"dx":0.0017,"nx":28,"ny":28,"refTime":"2023-07-30T09:00:00:Z","depth":0,"parameterNumber":3,"parameterNumberName":"V-component_of_WINDS"},"data":[0,0,0,0,0,0,0,0,0,0,0,0,0,0,0,0,0,0,0,0,0,0,0,0,0,0,0,0,0,0,0,0,0,0,0,0,0,0,0,0,0,0,0,0,0,0,0,0,0,0,0,0,0,0,0,0,0,0,0.7734,0.7733,0,0.7643,0.7642,0.7641,0.7523,0.7521,0.7519,0.7517,0.7421,0.742,0.742,0,0,0,0,0,0,0,0,0,0,0,0,0,0.7805,0.7805,0.7734,0.7733,0.7732,0.7643,0.7642,0.764,0.7523,0.7521,0.7519,0.7516,0.7421,0.742,0.7419,0,0,0,0,0,0,0,0,0,0,0,0,0,0.775,0.7805,0.7734,0.7663,0.7655,0.7643,0.7642,0.764,0.7524,0.7521,0.7518,0.7515,0.7422,0.7421,0.7419,0.7469,0,0,0.7416,0.7415,0,0,0,0,0,0,0,0,0.7754,0.7748,0.7674,0.7668,0.7659,0.7591,0.7631,0.7583,0.7524,0.7574,0.7517,0.7514,0.748,0.7474,0.7463,0.7465,0.7461,0.7416,0.7415,0.7414,0.7414,0,0,0,0,0,0,0,0.7758,0.7751,0.7698,0.7674,0.7664,0.7635,0.7624,0.7622,0.7544,0.7569,0.756,0.7551,0.7475,0.7464,0.746,0.7459,0.7416,0.7415,0.7414,0.7413,0.7499,0.7502,0,0,0,0,0,0,0.7772,0.7755,0.7701,0.7695,0.7701,0.7636,0.7623,0.7616,0.7544,0.753,0.7554,0.7546,0.7468,0.7461,0.7456,0.7511,0.7414,0.7413,0.7413,0.7496,0.7499,0.7503,0,0,0,0,0,0,0.7774,0.7769,0.7704,0.7723,0.7712,0.7637,0.763,0.7616,0.7605,0.7532,0.7517,0.7557,0.7465,0.7457,0.7467,0.7506,0.7413,0.7412,0.7492,0.7497,0.7501,0.7621,0,0,0,0,0,0,0.7777,0.777,0.7789,0.7724,0.7712,0.7719,0.7632,0.7616,0.7603,0.7592,0.7531,0.7518,0.7462,0.747,0.7466,0.7502,0.7411,0.7489,0.7494,0.75,0.7613,0.7629,0.7642,0,0,0,0,0,0.778,0.7825,0.779,0.7784,0.7734,0.7721,0.7714,0.7649,0.7607,0.7625,0.7578,0.752,0.7502,0.7472,0.7467,0.7503,0.7486,0.7493,0.7499,0.7607,0.7626,0.7642,0,0,0,0,0,0,0.7895,0.7815,0.7776,0.7802,0.7769,0.7701,0.7722,0.7671,0.765,0.764,0.756,0.7547,0.7567,0.7535,0.7503,0.7548,0.7485,0.7491,0.7569,0.7586,0.7601,0.7608,0.741,0,0,0,0,0,0.7924,0.7921,0.7851,0.7881,0.7866,0.7798,0.7789,0.7743,0.7705,0.7691,0.7645,0.761,0.7596,0.7589,0.7572,0.7607,0.7593,0.763,0.7645,0.7657,0.7664,0.7681,0.7697,0.7525,0.7524,0.7524,0,0,0.7983,0.7939,0.7942,0.7903,0.7872,0.7871,0.7787,0.7788,0.7786,0.769,0.7698,0.7663,0.7619,0.7642,0.765,0.7616,0.7708,0.7665,0.7676,0.7676,0.769,0.7706,0.7721,0.7529,0.7528,0.7528,0,0,0.809,0.8056,0.8078,0.8049,0.8004,0.7958,0.7963,0.7903,0.7877,0.7883,0.7811,0.7807,0.7785,0.7758,0.7741,0.7838,0.7784,0.7835,0.7911,0.7929,0.7943,0.7955,0.7991,0.8005,0.7841,0.7841,0.7842,0,0.8169,0.8164,0.8095,0.8102,0.8087,0.8001,0.8023,0.7998,0.795,0.7941,0.7904,0.7876,0.784,0.7857,0.7881,0.7869,0.7873,0.7842,0.7947,0.7958,0.7968,0.8002,0.8015,0.7848,0.7847,0.7847,0.7846,0,0.8264,0.8262,0.8285,0.8242,0.823,0.8244,0.8177,0.8172,0.8127,0.8085,0.8092,0.8046,0.802,0.802,0.7974,0.803,0.8011,0.7962,0.7897,0.7992,0.8023,0.8035,0.7857,0.7855,0.7853,0.7851,0,0,0.8442,0.8361,0.8371,0.8351,0.8295,0.8292,0.8302,0.8277,0.8276,0.8245,0.8253,0.8237,0.8191,0.8172,0.8123,0.8139,0.8221,0.8087,0.8085,0.8115,0.8281,0.832,0.8336,0.8184,0.8187,0.8188,0.8285,0,0.8539,0.8554,0.8492,0.8522,0.852,0.8439,0.8448,0.8415,0.8376,0.8368,0.8323,0.8315,0.8254,0.8243,0.8254,0.8209,0.8254,0.82,0.8191,0.8191,0.8207,0.8352,0.8392,0.8486,0.8297,0.8299,0.83,0,0.8655,0.8633,0.8664,0.8608,0.8604,0.8614,0.8587,0.858,0.8541,0.8511,0.8491,0.8435,0.8441,0.8379,0.8386,0.8352,0.8344,0.8321,0.8323,0.8321,0.8253,0.8355,0.8514,0.853,0.8318,0.8316,0.8315,0,0.8784,0.8761,0.8777,0.8762,0.8697,0.8706,0.8679,0.8637,0.8626,0.8602,0.8594,0.8571,0.8559,0.8542,0.8481,0.8441,0.8496,0.8428,0.8472,0.8474,0.8489,0.8489,0.8651,0.8481,0.8481,0.8481,0.848,0,0.89,0.8923,0.8834,0.8844,0.8867,0.8795,0.8819,0.8784,0.8748,0.875,0.8677,0.868,0.8598,0.8592,0.8544,0.8559,0.8553,0.853,0.8517,0.8537,0.8541,0.8532,0.8525,0.8484,0.8484,0.8483,0.8482,0,0.9048,0.8989,0.9002,0.894,0.8924,0.8944,0.8891,0.8897,0.8854,0.8857,0.8853,0.8785,0.8774,0.8712,0.8686,0.8653,0.8686,0.8659,0.87,0.8692,0.8741,0.8738,0.8904,0.8923,0.874,0.8742,0.8744,0,0.9127,0.9143,0.9083,0.9079,0.9056,0.9051,0.904,0.897,0.8962,0.892,0.8932,0.8915,0.8899,0.8885,0.8833,0.8813,0.8786,0.8846,0.8783,0.8804,0.879,0.879,0.8792,0.886,0.8863,0.8865,0.8866,0,0.9274,0.9245,0.9233,0.9211,0.9201,0.918,0.9155,0.9156,0.9079,0.9073,0.9062,0.9049,0.9024,0.9009,0.8981,0.8952,0.8897,0.8886,0.8896,0.8918,0.8942,0.8931,0.8739,0.8883,0.8881,0.888,0.8879,0.8879,0.9391,0.9402,0.9362,0.9351,0.9325,0.9304,0.9308,0.9265,0.9255,0.923,0.9189,0.9184,0.9145,0.9101,0.9078,0.9073,0.904,0.9054,0.9057,0.9062,0.9074,0.8941,0.9067,0.9066,0.9066,0.9065,0.9065,0,0.9535,0.9506,0.9497,0.9465,0.9457,0.9406,0.9376,0.9373,0.937,0.9339,0.9324,0.9312,0.9298,0.9245,0.9225,0.9231,0.9206,0.9229,0.9228,0.9223,0.9103,0.9097,0.925,0.925,0.925,0.925,0.925,0.925,0.961,0.9626,0.9593,0.9595,0.9565,0.9561,0.9549,0.9529,0.9503,0.9494,0.9482,0.9448,0.9408,0.9385,0.937,0.9354,0.9351,0.9383,0.936,0.9249,0.9231,0.9214,0.9209,0.9383,0.9383,0.9481,0.9482,0.9482]}]]